Dole Tavaux, France

12:35 AM CEST on April 30, 2017 (GMT +0200)
Tavaux

Weather History for LFGJ - March, 2013

Change the Weather History Date:

Sunday, March 3, 2013

  Actual Average (LFSD) Record (LFSD)
Temperature  
Mean Temperature 36 °F -  
Max Temperature 44 °F 47 °F 62 °F (2012)
Min Temperature 28 °F 32 °F 21 °F (2005)
Degree Days  
Heating Degree Days 29    
Moisture  
Dew Point 28 °F    
Average Humidity 76    
Maximum Humidity 93    
Minimum Humidity 57    
Precipitation  
Precipitation 0.00 in - - ()
Sea Level Pressure  
Sea Level Pressure 30.10 in    
Wind  
Wind Speed 4 mph ()    
Max Wind Speed 10 mph    
Max Gust Speed -    
Visibility 4.9 miles    
Events      
Averages and records for this station are not official NWS values.
T = Trace of Precipitation, MM = Missing Value Source: Averaged Metar Reports

Daily Weather History Graph

Daily Weather History Graph

Search for Another Location

Airport or City:

Trip Planner

Search our weather history database for the weather conditions in past years. The results will help you decide how hot, cold, wet, or windy it might be!

Date:

Astronomy

Mar. 03, 2013 Rise Set
Actual Time 7:14 AM CET 6:26 PM CET
Civil Twilight 6:43 AM CET 6:57 PM CET
Nautical Twilight 6:08 AM CET 7:32 PM CET
Astronomical Twilight 5:33 AM CET 8:08 PM CET
Moon 12:11 AM CET (3/3) 9:51 AM CET (3/3)
Length of Visible Light 12h 13m
Length of Day
11h 12m
Waning Gibbous, 66% of the Moon is Illuminated
Mar 3
Waning Gibbous
Mar 4
Last Quarter
Mar 11
New
Mar 19
First Quarter
Mar 27
Full

Hourly Weather History & Observations

Time (CET) Temp. Windchill Dew Point Humidity Pressure Visibility Wind Dir Wind Speed Gust Speed Precip Events Conditions
12:00 AM 35.6 °F 31.7 °F 30.2 °F 81% 30.18 in 6.2 mi North 4.6 mph - N/A   Overcast
12:30 AM 35.6 °F 32.8 °F 30.2 °F 81% 30.18 in 6.2 mi North 3.5 mph - N/A   Overcast
1:00 AM 35.6 °F 32.8 °F 28.4 °F 75% 30.15 in 6.2 mi North 3.5 mph - N/A   Overcast
1:30 AM 35.6 °F 32.8 °F 28.4 °F 75% 30.15 in 6.2 mi North 3.5 mph - N/A   Overcast
2:00 AM 35.6 °F 32.8 °F 28.4 °F 75% 30.15 in 6.2 mi North 3.5 mph - N/A   Overcast
2:30 AM 35.6 °F 32.8 °F 30.2 °F 81% 30.15 in 5.6 mi ENE 3.5 mph - N/A   Overcast
3:00 AM 33.8 °F 30.8 °F 30.2 °F 87% 30.15 in 5.6 mi ENE 3.5 mph - N/A   Overcast
3:30 AM 33.8 °F - 30.2 °F 87% 30.15 in 5.6 mi Calm Calm - N/A   Overcast
4:00 AM 33.8 °F - 30.2 °F 87% 30.15 in 5.0 mi Variable 1.2 mph - N/A   Overcast
4:30 AM 33.8 °F - 30.2 °F 87% 30.15 in 4.3 mi ENE 2.3 mph - N/A   Overcast
5:00 AM 33.8 °F 30.8 °F 30.2 °F 87% 30.15 in 4.3 mi ENE 3.5 mph - N/A   Overcast
5:30 AM 33.8 °F 29.6 °F 28.4 °F 81% 30.15 in 5.0 mi NE 4.6 mph - N/A   Overcast
6:00 AM 33.8 °F 27.0 °F 28.4 °F 81% 30.15 in 5.6 mi ENE 8.1 mph - N/A   Overcast
6:30 AM 33.8 °F 27.0 °F 28.4 °F 81% 30.15 in 5.6 mi NE 8.1 mph - N/A   Overcast
7:00 AM 33.8 °F 27.0 °F 28.4 °F 81% 30.15 in 5.6 mi NNE 8.1 mph - N/A   Overcast
7:30 AM 33.8 °F 25.8 °F 26.6 °F 75% 30.15 in 5.6 mi NE 10.4 mph - N/A   Overcast
8:00 AM 33.8 °F 27.0 °F 26.6 °F 75% 30.15 in 5.6 mi NE 8.1 mph - N/A   Overcast
8:30 AM 33.8 °F 27.0 °F 28.4 °F 81% 30.15 in 5.0 mi NNE 8.1 mph - N/A   Overcast
9:00 AM 33.8 °F 26.4 °F 28.4 °F 81% 30.12 in 5.0 mi NNE 9.2 mph - N/A   Overcast
9:30 AM 33.8 °F 27.0 °F 26.6 °F 75% 30.12 in 5.0 mi NE 8.1 mph - N/A   Overcast
10:00 AM 33.8 °F 26.4 °F 26.6 °F 75% 30.12 in 5.6 mi NNE 9.2 mph - N/A   Overcast
10:30 AM 33.8 °F 26.4 °F 26.6 °F 75% 30.12 in 5.6 mi NNE 9.2 mph - N/A   Overcast
11:00 AM 33.8 °F 27.7 °F 28.4 °F 81% 30.12 in 5.0 mi NE 6.9 mph - N/A   Overcast
11:30 AM 33.8 °F 26.4 °F 26.6 °F 75% 30.12 in 5.0 mi NNE 9.2 mph - N/A   Overcast
12:00 PM 35.6 °F 30.7 °F 28.4 °F 75% 30.12 in 5.0 mi ENE 5.8 mph - N/A   Overcast
12:30 PM 35.6 °F 30.7 °F 28.4 °F 75% 30.12 in 5.0 mi NE 5.8 mph - N/A   Overcast
1:00 PM 35.6 °F 29.9 °F 28.4 °F 75% 30.12 in 5.0 mi NE 6.9 mph - N/A   Overcast
1:30 PM 37.4 °F 34.9 °F 28.4 °F 70% 0.00 in 5.0 mi Variable 3.5 mph - N/A   Mostly Cloudy
2:00 PM 39.2 °F 37.0 °F 28.4 °F 65% 30.09 in 5.0 mi Variable 3.5 mph - N/A   Partly Cloudy
2:30 PM 42.8 °F - 28.4 °F 57% 30.09 in 5.6 mi Variable 2.3 mph - N/A   Unknown
3:00 PM 42.8 °F - 28.4 °F 57% 30.06 in 5.6 mi Variable 1.2 mph - N/A   Unknown
3:30 PM 44.6 °F - 30.2 °F 57% 30.06 in 5.6 mi Variable 1.2 mph - N/A   Unknown
4:00 PM 44.6 °F 42.2 °F 30.2 °F 57% 30.06 in 5.0 mi WSW 4.6 mph - N/A   Unknown
4:30 PM 44.6 °F 42.2 °F 30.2 °F 57% 30.04 in 5.6 mi West 4.6 mph - N/A   Unknown
5:00 PM 42.8 °F 38.6 °F 30.2 °F 61% 30.04 in 5.6 mi WSW 6.9 mph - N/A   Unknown
5:30 PM 42.8 °F 39.3 °F 30.2 °F 61% 30.04 in 5.6 mi WSW 5.8 mph - N/A   Unknown
6:00 PM 41.0 °F 37.1 °F 30.2 °F 65% 30.04 in 5.0 mi WSW 5.8 mph - N/A   Unknown
6:30 PM 37.4 °F 32.8 °F 30.2 °F 75% 30.04 in 2.8 mi WSW 5.8 mph - N/A   Mist
7:00 PM 37.4 °F - 28.4 °F 70% 30.04 in 4.3 mi West 1.2 mph - N/A   Unknown
7:30 PM 37.4 °F 34.9 °F 28.4 °F 70% 30.04 in 3.7 mi West 3.5 mph - N/A   Unknown
8:00 PM 33.8 °F - 28.4 °F 81% 30.04 in 3.1 mi Variable 1.2 mph - N/A   Mist
8:30 PM 32.0 °F - 28.4 °F 87% 30.04 in 3.1 mi Variable 1.2 mph - N/A   Mist
9:00 PM 30.2 °F 24.3 °F 26.6 °F 86% 30.04 in - SW 5.8 mph - N/A   Mist
9:30 PM 28.4 °F - 26.6 °F 93% 30.04 in - West 2.3 mph - N/A   Mist
10:00 PM 28.4 °F 24.6 °F 24.8 °F 86% 30.04 in - SSW 3.5 mph - N/A   Mist
10:30 PM 28.4 °F - 26.6 °F 93% 30.04 in 1.8 mi Calm Calm - N/A   Mist
11:00 PM 28.4 °F - 24.8 °F 86% 30.04 in 1.7 mi SE 1.2 mph - N/A   Mist
11:30 PM 28.4 °F - 26.6 °F 93% 30.04 in 0.9 mi Calm Calm - N/A   Mist